オルボルセン彗星

C/2013 D1 ( Holvorcem )

English version
Home page
Updated on September 8, 2013

---------------------------------------------------------------------

・ プロフィール

発見日 2013年2月16日
発見光度 19.2等
発見者 Paulo Holvorcem (Tenagra III astrograph)

・ 写真集

・ 軌道要素

Epoch 2013 Apr. 18.0 TT = JDT 2456400.5
T 2013 Apr. 13.73030 TT                                 MPC
q   2.4601013            (2000.0)            P               Q
n   0.02619725     Peri.  252.63557     -0.97780244     +0.13661380
a  11.2279090      Node   294.97427     -0.04924172     -0.88680680
e   0.7808941      Incl.   10.09349     -0.20366061     -0.44148655
P  37.6
From 111 observations 2013 Feb. 16-June 9, mean residual 0".4.

・ 光度変化

        m1 = 13.2 + 5 logΔ + 10.0 log r

---------------------------------------------------------------------

軌道要素はM.P.E.C. 2013-M31に掲載されたものです。
光度グラフはComet for Windowsで作成したものです。

---------------------------------------------------------------------

Copyright(C) Seiichi Yoshida (comet@aerith.net). All rights reserved.